Year,Month,Day,Hour,Minute,Value (Times are PST for temperature in C)
2015,04,19,00,00,9.90
2015,04,19,00,01,9.90
2015,04,19,00,02,9.90
2015,04,19,00,03,9.80
2015,04,19,00,04,9.80
2015,04,19,00,05,9.80
2015,04,19,00,06,9.80
2015,04,19,00,07,9.80
2015,04,19,00,08,9.80
2015,04,19,00,09,9.80
2015,04,19,00,10,9.80
2015,04,19,00,11,9.80
2015,04,19,00,12,9.80
2015,04,19,00,13,9.80
2015,04,19,00,14,9.80
2015,04,19,00,15,9.80
2015,04,19,00,16,9.80
2015,04,19,00,17,9.80
2015,04,19,00,18,9.80
2015,04,19,00,19,9.80
2015,04,19,00,20,9.80
2015,04,19,00,21,9.80
2015,04,19,00,22,9.80
2015,04,19,00,23,9.80
2015,04,19,00,24,9.80
2015,04,19,00,25,9.80
2015,04,19,00,26,9.80
2015,04,19,00,27,9.80
2015,04,19,00,28,9.80
2015,04,19,00,29,9.80
2015,04,19,00,30,9.80
2015,04,19,00,31,9.80
2015,04,19,00,32,9.80
2015,04,19,00,33,9.80
2015,04,19,00,34,9.80
2015,04,19,00,35,9.80
2015,04,19,00,36,9.80
2015,04,19,00,37,9.80
2015,04,19,00,38,9.80
2015,04,19,00,39,9.80
2015,04,19,00,40,9.80
2015,04,19,00,41,9.80
2015,04,19,00,42,9.80
2015,04,19,00,43,9.80
2015,04,19,00,44,9.90
2015,04,19,00,45,9.80
2015,04,19,00,46,9.80
2015,04,19,00,47,9.80
2015,04,19,00,48,9.90
2015,04,19,00,49,9.90
2015,04,19,00,50,9.90
2015,04,19,00,51,9.90
2015,04,19,00,52,9.80
2015,04,19,00,53,9.80
2015,04,19,00,54,9.80
2015,04,19,00,55,9.80
2015,04,19,00,56,9.80
2015,04,19,00,57,9.80
2015,04,19,00,58,9.80
2015,04,19,00,59,9.70
2015,04,19,01,00,9.70
2015,04,19,01,01,9.70
2015,04,19,01,02,9.70
2015,04,19,01,03,9.70
2015,04,19,01,04,9.70
2015,04,19,01,05,9.70
2015,04,19,01,06,9.70
2015,04,19,01,07,9.70
2015,04,19,01,08,9.70
2015,04,19,01,09,9.80
2015,04,19,01,10,9.80
2015,04,19,01,11,9.80
2015,04,19,01,12,9.80
2015,04,19,01,13,9.80
2015,04,19,01,14,9.90
2015,04,19,01,15,9.90
2015,04,19,01,16,9.90
2015,04,19,01,17,9.90
2015,04,19,01,18,9.90
2015,04,19,01,19,9.90
2015,04,19,01,20,9.80
2015,04,19,01,21,9.80
2015,04,19,01,22,9.80
2015,04,19,01,23,9.80
2015,04,19,01,24,9.80
2015,04,19,01,25,9.80
2015,04,19,01,26,9.70
2015,04,19,01,27,9.70
2015,04,19,01,28,9.70
2015,04,19,01,29,9.70
2015,04,19,01,30,9.70
2015,04,19,01,31,9.70
2015,04,19,01,32,9.70
2015,04,19,01,33,9.70
2015,04,19,01,34,9.70
2015,04,19,01,35,9.70
2015,04,19,01,36,9.70
2015,04,19,01,37,9.80
2015,04,19,01,38,9.80
2015,04,19,01,39,9.80
2015,04,19,01,40,9.80
2015,04,19,01,41,9.80
2015,04,19,01,42,9.80
2015,04,19,01,43,9.80
2015,04,19,01,44,9.70
2015,04,19,01,45,9.70
2015,04,19,01,46,9.70
2015,04,19,01,47,9.70
2015,04,19,01,48,9.60
2015,04,19,01,49,9.60
2015,04,19,01,50,9.60
2015,04,19,01,51,9.60
2015,04,19,01,52,9.60
2015,04,19,01,53,9.60
2015,04,19,01,54,9.50
2015,04,19,01,55,9.50
2015,04,19,01,56,9.50
2015,04,19,01,57,9.50
2015,04,19,01,58,9.50
2015,04,19,01,59,9.60
2015,04,19,02,00,9.60
2015,04,19,02,01,9.60
2015,04,19,02,02,9.60
2015,04,19,02,03,9.60
2015,04,19,02,04,9.60
2015,04,19,02,05,9.50
2015,04,19,02,06,9.50
2015,04,19,02,07,9.40
2015,04,19,02,08,9.40
2015,04,19,02,09,9.40
2015,04,19,02,10,9.40
2015,04,19,02,11,9.40
2015,04,19,02,12,9.30
2015,04,19,02,13,9.30
2015,04,19,02,14,9.30
2015,04,19,02,15,9.30
2015,04,19,02,16,9.30
2015,04,19,02,17,9.20
2015,04,19,02,18,9.20
2015,04,19,02,19,9.20
2015,04,19,02,20,9.20
2015,04,19,02,21,9.20
2015,04,19,02,22,9.10
2015,04,19,02,23,9.10
2015,04,19,02,24,9.10
2015,04,19,02,25,9.10
2015,04,19,02,26,9.10
2015,04,19,02,27,9.10
2015,04,19,02,28,9.10
2015,04,19,02,29,9.10
2015,04,19,02,30,9.10
2015,04,19,02,31,9.00
2015,04,19,02,32,9.00
2015,04,19,02,33,9.00
2015,04,19,02,34,9.00
2015,04,19,02,35,9.00
2015,04,19,02,36,9.00
2015,04,19,02,37,9.00
2015,04,19,02,38,9.00
2015,04,19,02,39,8.90
2015,04,19,02,40,8.90
2015,04,19,02,41,8.90
2015,04,19,02,42,8.90
2015,04,19,02,43,8.90
2015,04,19,02,44,8.90
2015,04,19,02,45,8.90
2015,04,19,02,46,8.90
2015,04,19,02,47,8.90
2015,04,19,02,48,8.90
2015,04,19,02,49,8.80
2015,04,19,02,50,8.80
2015,04,19,02,51,8.80
2015,04,19,02,52,8.80
2015,04,19,02,53,8.80
2015,04,19,02,54,8.70
2015,04,19,02,55,8.70
2015,04,19,02,56,8.70
2015,04,19,02,57,8.70
2015,04,19,02,58,8.70
2015,04,19,02,59,8.70
2015,04,19,03,00,8.70
2015,04,19,03,01,8.70
2015,04,19,03,02,8.60
2015,04,19,04,02,8.20
2015,04,19,04,03,8.20
2015,04,19,04,04,8.20
2015,04,19,04,05,8.20
2015,04,19,04,06,8.20
2015,04,19,04,07,8.20
2015,04,19,04,08,8.20
2015,04,19,04,09,8.20
2015,04,19,04,10,8.20
2015,04,19,04,11,8.20
2015,04,19,04,12,8.20
2015,04,19,04,13,8.20
2015,04,19,04,14,8.20
2015,04,19,04,15,8.20
2015,04,19,04,16,8.20
2015,04,19,04,17,8.20
2015,04,19,04,18,8.20
2015,04,19,04,19,8.20
2015,04,19,04,20,8.20
2015,04,19,04,21,8.20
2015,04,19,04,22,8.10
2015,04,19,04,23,8.10
2015,04,19,04,24,8.10
2015,04,19,04,25,8.10
2015,04,19,04,26,8.00
2015,04,19,04,27,8.00
2015,04,19,04,28,8.00
2015,04,19,04,29,8.00
2015,04,19,04,30,8.00
2015,04,19,04,31,8.00
2015,04,19,04,32,8.00
2015,04,19,04,33,8.00
2015,04,19,04,34,7.90
2015,04,19,04,35,7.90
2015,04,19,04,36,7.90
2015,04,19,04,37,7.90
2015,04,19,04,38,7.90
2015,04,19,04,39,7.90
2015,04,19,04,40,7.90
2015,04,19,04,41,7.90
2015,04,19,04,42,7.90
2015,04,19,04,43,7.90
2015,04,19,04,44,7.90
2015,04,19,04,45,7.90
2015,04,19,04,46,7.90
2015,04,19,04,47,7.90
2015,04,19,04,48,7.90
2015,04,19,04,49,7.90
2015,04,19,04,50,7.90
2015,04,19,04,51,7.90
2015,04,19,04,52,7.90
2015,04,19,04,53,7.90
2015,04,19,04,54,7.90
2015,04,19,04,55,7.90
2015,04,19,04,56,7.90
2015,04,19,04,57,8.00
2015,04,19,04,58,7.90
2015,04,19,04,59,7.90
2015,04,19,05,00,7.90
2015,04,19,05,01,7.90
2015,04,19,05,02,7.90
2015,04,19,05,03,7.90
2015,04,19,05,04,7.90
2015,04,19,05,05,7.90
2015,04,19,05,06,7.90
2015,04,19,05,07,7.90
2015,04,19,05,08,7.90
2015,04,19,05,09,7.90
2015,04,19,05,10,7.90
2015,04,19,05,11,7.90
2015,04,19,05,12,7.90
2015,04,19,05,13,7.90
2015,04,19,05,14,7.90
2015,04,19,05,15,7.90
2015,04,19,05,16,7.90
2015,04,19,05,17,7.90
2015,04,19,05,18,7.90
2015,04,19,05,19,7.90
2015,04,19,05,20,7.90
2015,04,19,05,21,7.90
2015,04,19,05,22,7.90
2015,04,19,05,23,7.90
2015,04,19,05,24,7.90
2015,04,19,05,25,7.90
2015,04,19,05,26,7.90
2015,04,19,05,27,7.90
2015,04,19,05,28,7.90
2015,04,19,05,29,8.00
2015,04,19,05,30,8.00
2015,04,19,05,31,7.90
2015,04,19,05,32,7.90
2015,04,19,05,33,7.90
2015,04,19,05,34,7.90
2015,04,19,05,35,7.90
2015,04,19,05,36,7.90
2015,04,19,05,37,7.80
2015,04,19,05,38,7.80
2015,04,19,05,39,7.80
2015,04,19,05,40,7.80
2015,04,19,05,41,7.80
2015,04,19,05,42,7.80
2015,04,19,05,43,7.80
2015,04,19,05,44,7.80
2015,04,19,05,45,7.80
2015,04,19,05,46,7.80
2015,04,19,05,47,7.70
2015,04,19,05,48,7.70
2015,04,19,05,49,7.70
2015,04,19,05,50,7.70
2015,04,19,05,51,7.70
2015,04,19,05,52,7.70
2015,04,19,05,53,7.70
2015,04,19,05,54,7.70
2015,04,19,05,55,7.70
2015,04,19,05,56,7.60
2015,04,19,05,57,7.60
2015,04,19,05,58,7.60
2015,04,19,05,59,7.70
2015,04,19,06,00,7.70
2015,04,19,06,01,7.70
2015,04,19,06,02,7.60
2015,04,19,06,03,7.60
2015,04,19,06,04,7.60
2015,04,19,06,05,7.60
2015,04,19,06,06,7.60
2015,04,19,06,07,7.60
2015,04,19,06,08,7.60
2015,04,19,06,09,7.60
2015,04,19,06,10,7.60
2015,04,19,06,11,7.60
2015,04,19,06,12,7.50
2015,04,19,06,13,7.50
2015,04,19,06,14,7.50
2015,04,19,06,15,7.50
2015,04,19,06,16,7.60
2015,04,19,06,17,7.60
2015,04,19,06,18,7.60
2015,04,19,06,19,7.60
2015,04,19,06,20,7.60
2015,04,19,06,21,7.60
2015,04,19,06,22,7.60
2015,04,19,06,23,7.60
2015,04,19,06,24,7.60
2015,04,19,06,25,7.60
2015,04,19,06,26,7.70
2015,04,19,06,27,7.70
2015,04,19,06,28,7.70
2015,04,19,06,29,7.70
2015,04,19,06,30,7.70
2015,04,19,06,31,7.70
2015,04,19,06,32,7.70
2015,04,19,06,33,7.70
2015,04,19,06,34,7.70
2015,04,19,06,35,7.70
2015,04,19,06,36,7.70
2015,04,19,06,37,7.70
2015,04,19,06,38,7.70
2015,04,19,06,39,7.70
2015,04,19,06,40,7.70
2015,04,19,06,41,7.60
2015,04,19,06,42,7.60
2015,04,19,06,43,7.60
2015,04,19,06,44,7.60
2015,04,19,06,45,7.60
2015,04,19,06,46,7.60
2015,04,19,06,47,7.60
2015,04,19,06,48,7.60
2015,04,19,06,49,7.60
2015,04,19,06,50,7.60
2015,04,19,06,51,7.60
2015,04,19,06,52,7.60
2015,04,19,06,53,7.60
2015,04,19,06,54,7.60
2015,04,19,06,55,7.60
2015,04,19,06,56,7.60
2015,04,19,06,57,7.60
2015,04,19,06,58,7.60
2015,04,19,06,59,7.60
2015,04,19,07,00,7.60
2015,04,19,07,01,7.60
2015,04,19,07,02,7.60
2015,04,19,07,03,7.60
2015,04,19,07,04,7.60
2015,04,19,07,05,7.60
2015,04,19,07,06,7.60
2015,04,19,07,07,7.60
2015,04,19,07,08,7.70
2015,04,19,07,09,7.70
2015,04,19,07,10,7.70
2015,04,19,07,11,7.70
2015,04,19,07,12,7.70
2015,04,19,07,13,7.80
2015,04,19,07,14,7.80
2015,04,19,07,15,7.80
2015,04,19,07,16,7.80
2015,04,19,07,17,7.80
2015,04,19,07,18,7.90
2015,04,19,07,19,7.90
2015,04,19,07,20,7.90
2015,04,19,07,21,8.00
2015,04,19,07,22,8.00
2015,04,19,07,23,8.00
2015,04,19,07,24,8.10
2015,04,19,07,25,8.10
2015,04,19,07,26,8.10
2015,04,19,07,27,8.10
2015,04,19,07,28,8.20
2015,04,19,07,29,8.20
2015,04,19,07,30,8.20
2015,04,19,07,31,8.20
2015,04,19,07,32,8.30
2015,04,19,07,33,8.30
2015,04,19,07,34,8.30
2015,04,19,07,35,8.30
2015,04,19,07,36,8.40
2015,04,19,07,37,8.40
2015,04,19,07,38,8.40
2015,04,19,07,39,8.50
2015,04,19,07,40,8.50
2015,04,19,07,41,8.50
2015,04,19,07,42,8.60
2015,04,19,07,43,8.60
2015,04,19,07,44,8.60
2015,04,19,07,45,8.60
2015,04,19,07,46,8.60
2015,04,19,07,47,8.60
2015,04,19,07,48,8.70
2015,04,19,07,49,8.70
2015,04,19,07,50,8.70
2015,04,19,07,51,8.70
2015,04,19,07,52,8.70
2015,04,19,07,53,8.80
2015,04,19,07,54,8.80
2015,04,19,07,55,8.80
2015,04,19,07,56,8.80
2015,04,19,07,57,8.90
2015,04,19,07,58,8.90
2015,04,19,07,59,8.90
2015,04,19,08,00,8.90
2015,04,19,08,01,9.00
2015,04,19,08,02,9.00
2015,04,19,08,03,9.10
2015,04,19,08,04,9.10
2015,04,19,08,05,9.10
2015,04,19,08,06,9.10
2015,04,19,08,07,9.20
2015,04,19,08,08,9.20
2015,04,19,08,09,9.20
2015,04,19,08,10,9.20
2015,04,19,08,11,9.20
2015,04,19,08,12,9.20
2015,04,19,08,13,9.20
2015,04,19,08,14,9.30
2015,04,19,08,15,9.30
2015,04,19,08,16,9.30
2015,04,19,08,17,9.40
2015,04,19,08,18,9.40
2015,04,19,08,19,9.40
2015,04,19,08,20,9.50
2015,04,19,08,21,9.50
2015,04,19,08,22,9.50
2015,04,19,08,23,9.50
2015,04,19,08,24,9.60
2015,04,19,08,25,9.60
2015,04,19,08,26,9.60
2015,04,19,08,27,9.60
2015,04,19,08,28,9.60
2015,04,19,08,29,9.70
2015,04,19,08,30,9.70
2015,04,19,08,31,9.80
2015,04,19,08,32,9.80
2015,04,19,08,33,9.80
2015,04,19,08,34,9.90
2015,04,19,08,35,9.90
2015,04,19,08,36,9.90
2015,04,19,08,37,10.00
2015,04,19,08,38,10.00
2015,04,19,08,39,10.10
2015,04,19,08,40,10.10
2015,04,19,08,41,10.20
2015,04,19,08,42,10.20
2015,04,19,08,43,10.30
2015,04,19,08,44,10.30
2015,04,19,08,45,10.40
2015,04,19,08,46,10.40
2015,04,19,08,47,10.40
2015,04,19,08,48,10.40
2015,04,19,08,49,10.40
2015,04,19,08,50,10.40
2015,04,19,08,51,10.50
2015,04,19,08,52,10.50
2015,04,19,08,53,10.50
2015,04,19,08,54,10.50
2015,04,19,08,55,10.50
2015,04,19,08,56,10.50
2015,04,19,08,57,10.50
2015,04,19,08,58,10.50
2015,04,19,08,59,10.60
2015,04,19,09,00,10.70
2015,04,19,09,01,10.70
2015,04,19,09,02,10.80
2015,04,19,09,03,10.80
2015,04,19,09,04,10.80
2015,04,19,09,05,10.80
2015,04,19,09,06,10.90
2015,04,19,09,07,10.90
2015,04,19,09,08,10.90
2015,04,19,09,09,10.90
2015,04,19,09,10,10.90
2015,04,19,09,11,11.00
2015,04,19,09,12,11.00
2015,04,19,09,13,11.00
2015,04,19,09,14,11.00
2015,04,19,09,15,11.00
2015,04,19,09,16,11.00
2015,04,19,09,17,11.10
2015,04,19,09,18,11.20
2015,04,19,09,19,11.20
2015,04,19,09,20,11.30
2015,04,19,09,21,11.20
2015,04,19,09,22,11.20
2015,04,19,09,23,11.10
2015,04,19,09,24,11.00
2015,04,19,09,25,10.90
2015,04,19,09,26,10.80
2015,04,19,09,27,10.80
2015,04,19,09,28,10.80
2015,04,19,09,29,10.70
2015,04,19,09,30,10.70
2015,04,19,09,31,10.70
2015,04,19,09,32,10.70
2015,04,19,09,33,10.70
2015,04,19,09,34,10.70
2015,04,19,09,35,10.70
2015,04,19,09,36,10.70
2015,04,19,09,37,10.70
2015,04,19,09,38,10.70
2015,04,19,09,39,10.70
2015,04,19,09,40,10.70
2015,04,19,09,41,10.70
2015,04,19,09,42,10.70
2015,04,19,09,43,10.70
2015,04,19,09,44,10.70
2015,04,19,09,45,10.60
2015,04,19,09,46,10.60
2015,04,19,09,47,10.60
2015,04,19,09,48,10.60
2015,04,19,09,49,10.60
2015,04,19,09,50,10.60
2015,04,19,09,51,10.70
2015,04,19,09,52,10.70
2015,04,19,09,53,10.70
2015,04,19,09,54,10.80
2015,04,19,09,55,10.80
2015,04,19,09,56,10.80
2015,04,19,09,57,10.80
2015,04,19,09,58,10.80
2015,04,19,09,59,10.80
2015,04,19,10,00,10.80
2015,04,19,10,01,10.90
2015,04,19,10,02,11.00
2015,04,19,10,03,11.00
2015,04,19,10,04,11.10
2015,04,19,10,05,11.10
2015,04,19,10,06,11.10
2015,04,19,10,07,11.10
2015,04,19,10,08,11.10
2015,04,19,10,09,11.00
2015,04,19,10,10,11.00
2015,04,19,10,11,11.10
2015,04,19,10,12,11.10
2015,04,19,10,13,11.00
2015,04,19,10,14,11.00
2015,04,19,10,15,10.90
2015,04,19,10,16,10.90
2015,04,19,10,17,10.90
2015,04,19,10,18,10.90
2015,04,19,10,19,10.90
2015,04,19,10,20,11.00
2015,04,19,10,21,11.10
2015,04,19,10,22,11.10
2015,04,19,10,23,11.10
2015,04,19,10,24,11.10
2015,04,19,10,25,11.10
2015,04,19,10,26,11.10
2015,04,19,10,27,11.10
2015,04,19,10,28,11.00
2015,04,19,10,29,11.00
2015,04,19,10,30,11.10
2015,04,19,10,31,11.00
2015,04,19,10,32,11.00
2015,04,19,10,33,11.10
2015,04,19,10,34,11.10
2015,04,19,10,35,11.10
2015,04,19,10,36,11.10
2015,04,19,10,37,11.10
2015,04,19,10,38,11.10
2015,04,19,10,39,11.10
2015,04,19,10,40,11.10
2015,04,19,10,41,11.20
2015,04,19,10,42,11.20
2015,04,19,10,43,11.20
2015,04,19,10,44,11.20
2015,04,19,10,45,11.20
2015,04,19,10,46,11.20
2015,04,19,10,47,11.20
2015,04,19,10,48,11.30
2015,04,19,10,49,11.30
2015,04,19,10,50,11.40
2015,04,19,10,51,11.50
2015,04,19,10,52,11.50
2015,04,19,10,53,11.60
2015,04,19,10,54,11.60
2015,04,19,10,55,11.60
2015,04,19,10,56,11.60
2015,04,19,10,57,11.70
2015,04,19,10,58,11.80
2015,04,19,10,59,11.80
2015,04,19,11,00,11.80
2015,04,19,11,01,11.80
2015,04,19,11,02,11.80
2015,04,19,11,03,11.90
2015,04,19,11,04,11.90
2015,04,19,11,05,11.80
2015,04,19,11,06,11.90
2015,04,19,11,07,11.90
2015,04,19,11,08,11.90
2015,04,19,11,09,11.90
2015,04,19,11,10,11.90
2015,04,19,11,11,11.90
2015,04,19,11,12,12.00
2015,04,19,11,13,12.10
2015,04,19,11,14,12.10
2015,04,19,11,15,12.10
2015,04,19,11,16,12.10
2015,04,19,11,17,12.10
2015,04,19,11,18,12.10
2015,04,19,11,19,12.10
2015,04,19,11,20,12.10
2015,04,19,11,21,12.10
2015,04,19,11,22,12.10
2015,04,19,11,23,12.10
2015,04,19,11,24,12.10
2015,04,19,11,25,12.20
2015,04,19,11,26,12.20
2015,04,19,11,27,12.30
2015,04,19,11,28,12.40
2015,04,19,11,29,12.40
2015,04,19,11,30,12.40
2015,04,19,11,31,12.40
2015,04,19,11,32,12.40
2015,04,19,11,33,12.40
2015,04,19,11,34,12.40
2015,04,19,11,35,12.50
2015,04,19,11,36,12.50
2015,04,19,11,37,12.50
2015,04,19,11,38,12.50
2015,04,19,11,39,12.40
2015,04,19,11,40,12.40
2015,04,19,11,41,12.50
2015,04,19,11,42,12.40
2015,04,19,11,43,12.50
2015,04,19,11,44,12.50
2015,04,19,11,45,12.50
2015,04,19,11,46,12.60
2015,04,19,11,47,12.60
2015,04,19,11,48,12.70
2015,04,19,11,49,12.80
2015,04,19,11,50,12.80
2015,04,19,11,51,12.90
2015,04,19,11,52,13.00
2015,04,19,11,53,13.10
2015,04,19,11,54,13.20
2015,04,19,11,55,13.30
2015,04,19,11,56,13.50
2015,04,19,11,57,13.60
2015,04,19,11,58,13.60
2015,04,19,11,59,13.60
2015,04,19,12,00,13.70
2015,04,19,12,01,13.70
2015,04,19,12,02,13.80
2015,04,19,12,03,13.80
2015,04,19,12,04,13.80
2015,04,19,12,05,13.90
2015,04,19,12,06,14.00
2015,04,19,12,07,14.10
2015,04,19,12,08,14.00
2015,04,19,12,09,14.00
2015,04,19,12,10,14.00
2015,04,19,12,11,14.00
2015,04,19,12,12,13.90
2015,04,19,12,13,14.00
2015,04,19,12,14,14.00
2015,04,19,12,15,14.00
2015,04,19,12,16,14.00
2015,04,19,12,17,14.00
2015,04,19,12,18,14.00
2015,04,19,12,19,14.00
2015,04,19,12,20,14.00
2015,04,19,12,21,14.00
2015,04,19,12,22,14.10
2015,04,19,12,23,14.10
2015,04,19,12,24,14.10
2015,04,19,12,25,14.10
2015,04,19,12,26,14.10
2015,04,19,12,27,14.10
2015,04,19,12,28,14.20
2015,04,19,12,29,14.20
2015,04,19,12,30,14.10
2015,04,19,12,31,14.10
2015,04,19,12,32,14.00
2015,04,19,12,33,14.00
2015,04,19,12,34,13.90
2015,04,19,12,35,13.90
2015,04,19,12,36,13.90
2015,04,19,12,37,13.90
2015,04,19,12,38,13.90
2015,04,19,12,39,13.90
2015,04,19,12,40,13.90
2015,04,19,12,41,13.90
2015,04,19,12,42,14.00
2015,04,19,12,43,14.00
2015,04,19,12,44,14.10
2015,04,19,12,45,14.20
2015,04,19,12,46,14.30
2015,04,19,12,47,14.50
2015,04,19,12,48,14.60
2015,04,19,12,49,14.60
2015,04,19,12,50,14.70
2015,04,19,12,51,14.70
2015,04,19,12,52,14.80
2015,04,19,12,53,14.80
2015,04,19,12,54,14.80
2015,04,19,12,55,14.80
2015,04,19,12,56,14.80
2015,04,19,12,57,14.90
2015,04,19,12,58,15.00
2015,04,19,12,59,15.10
2015,04,19,13,00,15.20
2015,04,19,13,01,15.30
2015,04,19,13,02,15.30
2015,04,19,13,03,15.50
2015,04,19,13,04,15.60
2015,04,19,13,05,15.50
2015,04,19,13,06,15.10
2015,04,19,13,07,14.70
2015,04,19,13,08,14.40
2015,04,19,13,09,14.20
2015,04,19,13,10,14.00
2015,04,19,13,11,13.80
2015,04,19,13,12,13.70
2015,04,19,13,13,13.60
2015,04,19,13,14,13.60
2015,04,19,13,15,13.60
2015,04,19,13,16,13.60
2015,04,19,13,17,13.60
2015,04,19,13,18,13.60
2015,04,19,13,19,13.70
2015,04,19,13,20,13.70
2015,04,19,13,21,13.80
2015,04,19,13,22,13.90
2015,04,19,13,23,13.90
2015,04,19,13,24,14.00
2015,04,19,13,25,14.00
2015,04,19,13,26,14.10
2015,04,19,13,27,14.20
2015,04,19,13,28,14.30
2015,04,19,13,29,14.40
2015,04,19,13,30,14.50
2015,04,19,13,31,14.60
2015,04,19,13,32,14.70
2015,04,19,13,33,14.60
2015,04,19,13,34,14.50
2015,04,19,13,35,14.40
2015,04,19,13,36,14.30
2015,04,19,13,37,14.30
2015,04,19,13,38,14.30
2015,04,19,13,39,14.30
2015,04,19,13,40,14.30
2015,04,19,13,41,14.40
2015,04,19,13,42,14.40
2015,04,19,13,43,14.50
2015,04,19,13,44,14.60
2015,04,19,13,45,14.70
2015,04,19,13,46,14.80
2015,04,19,13,47,14.80
2015,04,19,13,48,14.80
2015,04,19,13,49,14.80
2015,04,19,13,50,14.80
2015,04,19,13,51,14.80
2015,04,19,13,52,14.80
2015,04,19,13,53,14.80
2015,04,19,13,54,14.90
2015,04,19,13,55,14.90
2015,04,19,13,56,14.90
2015,04,19,13,57,14.90
2015,04,19,13,58,15.00
2015,04,19,13,59,15.10
2015,04,19,14,00,15.10
2015,04,19,14,01,15.20
2015,04,19,14,02,15.10
2015,04,19,14,03,15.10
2015,04,19,14,04,15.00
2015,04,19,14,05,14.90
2015,04,19,14,06,14.90
2015,04,19,14,07,14.90
2015,04,19,14,08,14.90
2015,04,19,14,09,14.80
2015,04,19,14,10,14.90
2015,04,19,14,11,14.90
2015,04,19,14,12,15.00
2015,04,19,14,13,15.10
2015,04,19,14,14,15.10
2015,04,19,14,15,15.20
2015,04,19,14,16,15.20
2015,04,19,14,17,15.30
2015,04,19,14,18,15.30
2015,04,19,14,19,15.30
2015,04,19,14,20,15.30
2015,04,19,14,21,15.30
2015,04,19,14,22,15.30
2015,04,19,14,23,15.40
2015,04,19,14,24,15.50
2015,04,19,14,25,15.50
2015,04,19,14,26,15.40
2015,04,19,14,27,15.30
2015,04,19,14,28,15.20
2015,04,19,14,29,15.20
2015,04,19,14,30,15.20
2015,04,19,14,31,15.20
2015,04,19,14,32,15.20
2015,04,19,14,33,15.20
2015,04,19,14,34,15.30
2015,04,19,14,35,15.30
2015,04,19,14,36,15.40
2015,04,19,14,37,15.50
2015,04,19,14,38,15.60
2015,04,19,14,39,15.70
2015,04,19,14,40,15.80
2015,04,19,14,41,15.90
2015,04,19,14,42,15.90
2015,04,19,14,43,15.90
2015,04,19,14,44,15.90
2015,04,19,14,45,15.90
2015,04,19,14,46,16.00
2015,04,19,14,47,16.10
2015,04,19,14,48,16.20
2015,04,19,14,49,16.30
2015,04,19,14,50,16.30
2015,04,19,14,51,16.40
2015,04,19,14,52,16.40
2015,04,19,14,53,16.50
2015,04,19,14,54,16.50
2015,04,19,14,55,16.50
2015,04,19,14,56,16.40
2015,04,19,14,57,16.40
2015,04,19,14,58,16.50
2015,04,19,14,59,16.40
2015,04,19,15,00,16.40
2015,04,19,15,01,16.30
2015,04,19,15,02,16.20
2015,04,19,15,03,16.20
2015,04,19,15,04,16.20
2015,04,19,15,05,16.20
2015,04,19,15,06,16.20
2015,04,19,15,07,16.20
2015,04,19,15,08,16.20
2015,04,19,15,09,16.20
2015,04,19,15,10,16.20
2015,04,19,15,11,16.20
2015,04,19,15,12,16.20
2015,04,19,15,13,16.20
2015,04,19,15,14,16.20
2015,04,19,15,15,16.20
2015,04,19,15,16,16.20
2015,04,19,15,17,16.30
2015,04,19,15,18,16.40
2015,04,19,15,19,16.40
2015,04,19,15,20,16.50
2015,04,19,15,21,16.60
2015,04,19,15,22,16.60
2015,04,19,15,23,16.60
2015,04,19,15,24,16.70
2015,04,19,15,25,16.70
2015,04,19,15,26,16.80
2015,04,19,15,27,16.80
2015,04,19,15,28,16.80
2015,04,19,15,29,16.80
2015,04,19,15,30,16.80
2015,04,19,15,31,16.80
2015,04,19,15,32,16.80
2015,04,19,15,33,16.80
2015,04,19,15,34,16.80
2015,04,19,15,35,16.80
2015,04,19,15,36,16.80
2015,04,19,15,37,16.80
2015,04,19,15,38,16.70
2015,04,19,15,39,16.70
2015,04,19,15,40,16.70
2015,04,19,15,41,16.70
2015,04,19,15,42,16.70
2015,04,19,15,43,16.80
2015,04,19,15,44,16.80
2015,04,19,15,45,16.90
2015,04,19,15,46,17.00
2015,04,19,15,47,17.10
2015,04,19,15,48,17.20
2015,04,19,15,49,17.30
2015,04,19,15,50,17.30
2015,04,19,15,51,17.40
2015,04,19,15,52,17.40
2015,04,19,15,53,17.50
2015,04,19,15,54,17.50
2015,04,19,15,55,17.60
2015,04,19,15,56,17.60
2015,04,19,15,57,17.70
2015,04,19,15,58,17.70
2015,04,19,15,59,17.80
2015,04,19,16,00,17.80
2015,04,19,16,01,17.90
2015,04,19,16,02,17.90
2015,04,19,16,03,18.00
2015,04,19,16,04,18.00
2015,04,19,16,05,18.00
2015,04,19,16,06,18.00
2015,04,19,16,07,18.00
2015,04,19,16,08,18.00
2015,04,19,16,09,17.90
2015,04,19,16,10,17.90
2015,04,19,16,11,17.90
2015,04,19,16,12,17.90
2015,04,19,16,13,17.90
2015,04,19,16,14,17.90
2015,04,19,16,15,17.80
2015,04,19,16,16,17.70
2015,04,19,16,17,17.70
2015,04,19,16,18,17.60
2015,04,19,16,19,17.60
2015,04,19,16,20,17.60
2015,04,19,16,21,17.60
2015,04,19,16,22,17.70
2015,04,19,16,23,17.70
2015,04,19,16,24,17.70
2015,04,19,16,25,17.70
2015,04,19,16,26,17.80
2015,04,19,16,27,17.80
2015,04,19,16,28,17.80
2015,04,19,16,29,17.80
2015,04,19,16,30,17.80
2015,04,19,16,31,17.80
2015,04,19,16,32,17.70
2015,04,19,16,33,17.70
2015,04,19,16,34,17.60
2015,04,19,16,35,17.60
2015,04,19,16,36,17.60
2015,04,19,16,37,17.50
2015,04,19,16,38,17.40
2015,04,19,16,39,17.40
2015,04,19,16,40,17.30
2015,04,19,16,41,17.30
2015,04,19,16,42,17.40
2015,04,19,16,43,17.40
2015,04,19,16,44,17.40
2015,04,19,16,45,17.50
2015,04,19,16,46,17.50
2015,04,19,16,47,17.60
2015,04,19,16,48,17.60
2015,04,19,16,49,17.60
2015,04,19,16,50,17.70
2015,04,19,16,51,17.80
2015,04,19,16,52,17.80
2015,04,19,16,53,17.80
2015,04,19,16,54,17.90
2015,04,19,16,55,17.90
2015,04,19,16,56,18.00
2015,04,19,16,57,18.10
2015,04,19,16,58,18.10
2015,04,19,16,59,18.20
2015,04,19,17,00,18.20
2015,04,19,17,01,18.30
2015,04,19,17,02,18.40
2015,04,19,17,03,18.40
2015,04,19,17,04,18.40
2015,04,19,17,05,18.40
2015,04,19,17,06,18.40
2015,04,19,17,07,18.40
2015,04,19,17,08,18.40
2015,04,19,17,09,18.50
2015,04,19,17,10,18.50
2015,04,19,17,11,18.60
2015,04,19,17,12,18.60
2015,04,19,17,13,18.60
2015,04,19,17,14,18.60
2015,04,19,17,15,18.50
2015,04,19,17,16,18.50
2015,04,19,17,17,18.50
2015,04,19,17,18,18.50
2015,04,19,17,19,18.50
2015,04,19,17,20,18.60
2015,04,19,17,21,18.60
2015,04,19,17,22,18.60
2015,04,19,17,23,18.70
2015,04,19,17,24,18.70
2015,04,19,17,25,18.80
2015,04,19,17,26,18.80
2015,04,19,17,27,18.80
2015,04,19,17,28,18.80
2015,04,19,17,29,18.70
2015,04,19,17,30,18.60
2015,04,19,17,31,18.60
2015,04,19,17,32,18.50
2015,04,19,17,33,18.50
2015,04,19,17,34,18.50
2015,04,19,17,35,18.60
2015,04,19,17,36,18.60
2015,04,19,17,37,18.60
2015,04,19,17,38,18.60
2015,04,19,17,39,18.60
2015,04,19,17,40,18.60
2015,04,19,17,41,18.60
2015,04,19,17,42,18.60
2015,04,19,17,43,18.60
2015,04,19,17,44,18.70
2015,04,19,17,45,18.70
2015,04,19,17,46,18.80
2015,04,19,17,47,18.80
2015,04,19,17,48,18.80
2015,04,19,17,49,18.80
2015,04,19,17,50,18.80
2015,04,19,17,51,18.80
2015,04,19,17,52,18.80
2015,04,19,17,53,18.90
2015,04,19,17,54,18.90
2015,04,19,17,55,18.90
2015,04,19,17,56,18.90
2015,04,19,17,57,18.90
2015,04,19,17,58,18.90
2015,04,19,17,59,19.00
2015,04,19,18,00,19.00
2015,04,19,18,01,19.10
2015,04,19,18,02,19.10
2015,04,19,18,03,19.10
2015,04,19,18,04,19.20
2015,04,19,18,05,19.20
2015,04,19,18,06,19.20
2015,04,19,18,07,19.20
2015,04,19,18,08,19.20
2015,04,19,18,09,19.30
2015,04,19,18,10,19.30
2015,04,19,18,11,19.30
2015,04,19,18,12,19.40
2015,04,19,18,13,19.40
2015,04,19,18,14,19.50
2015,04,19,18,15,19.50
2015,04,19,18,16,19.60
2015,04,19,18,17,19.60
2015,04,19,18,18,19.60
2015,04,19,18,19,19.60
2015,04,19,18,20,19.60
2015,04,19,18,21,19.60
2015,04,19,18,22,19.60
2015,04,19,18,23,19.60
2015,04,19,18,24,19.60
2015,04,19,18,25,19.60
2015,04,19,18,26,19.60
2015,04,19,18,27,19.60
2015,04,19,18,28,19.60
2015,04,19,18,29,19.60
2015,04,19,18,30,19.60
2015,04,19,18,31,19.60
2015,04,19,18,32,19.60
2015,04,19,18,33,19.60
2015,04,19,18,34,19.60
2015,04,19,18,35,19.60
2015,04,19,18,36,19.50
2015,04,19,18,37,19.50
2015,04,19,18,38,19.50